Preview of NWS' New Version of Forecast
This preview is not operational and should not be used for support decisions.
Latest weather observations around

Houlton, Houlton International Airport (KHUL)

Using English Units (Switch to International System of Units)
Date/ Time (EST) Wind (mph) Vis. (mi) Weather Sky Cond. Temp (°F) Rel. Humidity Wind Chill (°F) Heat Index (°F) Pressure Precip. (in)
Air Dwpt 6 hour Altimeter (inHg) Sea level (inHg) 1 hr 3 hr 6 hr
Max Min
Feb 22 08:53 N 13 10 Clear CLR 18 3     51% 5   30.63 30.65      
Feb 22 07:53 N 13 10 Clear CLR 17 3     53% 4   30.63 30.66      
Feb 22 06:53 N 10 10 Clear CLR 15 4     61% 3   30.6 30.63      
Feb 22 05:53 NNW 14 10 Clear CLR 17 4     56% 3   30.58 30.6      
Feb 22 04:53 NNW 8 10 Clear CLR 19 5     54% 9   30.55 30.57      
Feb 22 03:53 NNW 13 10 Clear CLR 20 5     52% 7   30.52 30.55      
Feb 22 02:53 NNW 15 10 Clear CLR 23 5     45% 10   30.5 30.51      
Feb 22 01:53 NNW 15 10 Clear CLR 25 7     46% 13   30.46 30.47      
Feb 22 00:53 NNW 14 10 Clear CLR 28 8     42% 17   30.41        
Feb 21 23:53 NW 15 10 Clear CLR 31        % 20   30.36 30.38      
Feb 21 22:53 NW 14 10 Clear CLR 35 20     54% 26   30.29 30.31      
Feb 21 21:53 WNW 10 10 Clear CLR 39 22     50% 32   30.23 30.25      
Feb 21 20:53 NW 15 10 Partly Cloudy SCT043 42 31     64% 35   30.18 30.19      
Feb 21 19:53 W 15 10 Clear CLR 45 32     60% 38   30.11 30.13      
Feb 21 18:53 WNW 11 10 Cloudy BKN080 OVC100 49 36     61% 44   30.05 30.07     0
Feb 21 17:53 WNW 9 10 Cloudy FEW020 BKN065 OVC090 49 47     93% 45   30.02 30.03 0    
Feb 21 17:49 WNW 7 10 Cloudy FEW020 BKN060 OVC090 48 48     100% 45   30.02   0    
Feb 21 17:16 SW 6 10 Cloudy FEW022 BKN028 OVC070 47 46     97% 44   29.97        
Feb 21 16:53 S 8 9 Cloudy SCT027 OVC065 46 45     96% 42   29.95 29.96 0    
Feb 21 15:53 S 5 8 Cloudy FEW028 BKN033 OVC042 44 44     100% 41   29.91 29.92 0 0  
Feb 21 14:53 WSW 5 10 Cloudy OVC055 46 45     96% 44   29.88 29.9      
Feb 21 13:53 SSW 7 10 Mostly Clear FEW006 48 45     89% 45   29.87 29.88      
Feb 21 12:53 SSW 10 10 Cloudy OVC005 46 44     93% 41   29.92 29.93      
Feb 21 12:09 SSW 10 10 Cloudy OVC005 44 43     96% 39   29.94        
Feb 21 11:53 SSW 9 10 Cloudy OVC004 44 43     96% 39   29.94 29.96      
Feb 21 11:04 SSW 9 8 Cloudy OVC003 41 41     100% 35   29.97        
Feb 21 10:53 SSW 10 7 Cloudy OVC002 40 40     100% 33   29.98 30      
Feb 21 10:32 SSW 7 4 Fog/Mist OVC002 40 40     100% 35   29.99        
Feb 21 10:25 SSW 8 2.5 Fog/Mist OVC002 40 39     97% 34   29.99        
Feb 21 10:16 SSW 8 1.75 Fog/Mist OVC002 39 39     100% 33   29.99        
Feb 21 10:03 SSW 7 2 Fog/Mist OVC002 39 39     100% 34   29.99        
Feb 21 09:53 SSW 6 1.75 Fog/Mist OVC002 38 38     100% 33   30 30.01      
Feb 21 09:31 SSW 10 1.5 Fog/Mist OVC002 38 38     100% 31   30.01        
Feb 21 09:08 SSW 8 1 Fog/Mist OVC002 37 36     96% 31   30.01        
Feb 21 08:53 S 7 0.75 Fog/Mist OVC002 36 36     100% 30   30.01 30.03      
Feb 21 07:53 S 10 0.75 Fog/Mist OVC002 34 34     100% 26   30.05 30.07      
Feb 21 07:00 S 8 0.5 Fog OVC002 33 33     100% 26   30.07        
Feb 21 06:53 S 9 0.5 Fog VV003 33 33     100% 25   30.07 30.09     0
Feb 21 06:43 6 0.25 Fog VV003 33 33     100% 28   30.07        
Feb 21 05:53 3 0.5 Fog VV002 33 33     100% 30   30.1 30.11      
Feb 21 05:34 SSW 5 0.5 Fog VV003 32 32     100% 27   30.11        
Feb 21 05:21 S 5 0.75 Fog/Mist OVC002 32 32     100% 27   30.11        
Feb 21 05:11 S 6 1 Fog/Mist OVC002 32 32     100% 26   30.11        
Feb 21 05:04 S 7 1.25 Fog/Mist OVC003 32 32     100% 26   30.12        
Feb 21 04:53 7 2.5 Fog/Mist OVC003 32 32     100% 26   30.12 30.14      
Feb 21 03:53 SSE 6 4 Fog/Mist OVC004 32 31     96% 26   30.16 30.17   0  
Feb 21 03:20 S 6 5 Fog/Mist OVC004 31 31     100% 25   30.18        
Feb 21 02:53 SE 6 8 Cloudy OVC005 31 30     96% 25   30.19 30.21      
Feb 21 01:53 Calm 6 Fog/Mist OVC007 31 30     96%     30.22 30.23 0    
Feb 21 01:29 SSE 6 5 Fog/Mist BKN008 OVC013 31 30     96% 25   30.22   0    
Feb 21 00:53 7 3 Light Freezing Rain and Fog/Mist OVC005 32 30     92% 26   30.24 30.26 0   0
Feb 20 23:53 3 5 Light Freezing Rain and Fog/Mist OVC005 31 30     96% 28   30.26 30.27 0    
Feb 20 23:39 7 7 Light Freezing Rain OVC005 31 30     96% 24   30.26   0    
Feb 20 23:23 SE 8 5 Light Freezing Rain and Fog/Mist OVC004 31 30     96% 23   30.26   0    
Feb 20 22:53 SE 10 8 Cloudy OVC004 31 30     96% 22   30.26 30.28      
Feb 20 22:27 ESE 7 5 Fog/Mist OVC004 32 31     96% 26   30.27        
Feb 20 21:53 ESE 9 5 Fog/Mist OVC005 32 31     96% 24   30.28 30.29   0  
Feb 20 20:53 ESE 8 4 Fog/Mist OVC006 32 31     96% 25   30.29 30.32      
Feb 20 19:53 6 4 Fog/Mist OVC007 33 32     96% 28   30.3 30.32 0    
Feb 20 19:11 E 7 3 Fog/Mist BKN007 OVC012 34 33     96% 28   30.31   0    
Feb 20 19:01 E 8 2.5 Light Rain and Fog/Mist BKN006 OVC012 35 34     96% 29   30.3   0    
Feb 20 18:53 E 9 3 Light Rain and Fog/Mist SCT006 BKN012 OVC018 35 34     96% 28   30.3 30.32 0   0
Feb 20 18:50 ESE 13 3 Light Rain and Fog/Mist BKN006 BKN012 OVC018 36 34     93% 27   30.29   0    
Feb 20 18:34 E 9 4 Light Rain and Fog/Mist FEW008 OVC016 36 35     96% 29   30.31   0    
Feb 20 18:25 E 9 4 Light Rain and Fog/Mist SCT008 BKN014 OVC019 36 35     96% 29   30.31   0    
Feb 20 18:15 ESE 6 3 Light Rain and Fog/Mist SCT011 OVC017 37 35     92% 32   30.31   0    
Feb 20 17:59 E 7 4 Light Rain and Fog/Mist FEW008 BKN011 OVC025 37 35     92% 32   30.3   0    
Feb 20 17:53 E 7 3 Light Rain and Fog/Mist FEW011 OVC025 37 35     92% 32   30.3 30.32 0    
Feb 20 17:14 ESE 8 5 Light Rain and Fog/Mist OVC029 37 35     92% 31   30.29   0    
Feb 20 16:53 ESE 3 7 Cloudy FEW009 OVC031 37 36     96% 35   30.27 30.29 0    
Feb 20 16:16 E 5 5 Light Rain and Fog/Mist FEW008 SCT012 OVC031 38 36     92% 34   30.27   0    
Feb 20 16:00 Calm 6 Light Rain and Fog/Mist BKN010 BKN017 OVC035 38 36     92%     30.26   0    
Feb 20 15:53 5 6 Light Rain and Fog/Mist FEW008 SCT013 OVC033 38 36     92% 34   30.26 30.27 0 0  
Feb 20 14:53 Calm 5 Light Rain and Fog/Mist OVC035 38 36     92%     30.26 30.28 0    
Feb 20 13:53 3 7 Light Rain BKN037 OVC065 38 35     89% 36   30.24 30.26 0    
Feb 20 12:53 Calm 7 Light Rain BKN036 OVC045 38 35     89%     30.27 30.28 0   0
Feb 20 11:53 ENE 5 10 Cloudy FEW012 OVC035 38 34     85% 34   30.28 30.29      
Feb 20 11:29 NE 7 8 Cloudy SCT012 BKN038 OVC050 37 34     89% 32   30.28        
Feb 20 11:10 NNE 5 8 Cloudy FEW007 BKN011 OVC050 36 34     92% 32   30.29        
Feb 20 10:53 NNE 5 7 Cloudy BKN007 BKN039 OVC055 36 35     96% 32   30.28 30.3      
Feb 20 10:02 N 3 6 Fog/Mist BKN006 OVC035 35 35     100% 32   30.29        
Feb 20 09:53 N 7 8 Cloudy SCT006 BKN010 OVC035 36 35     96% 30   30.3 30.32      
Feb 20 09:28 N 5 5 Fog/Mist BKN005 OVC038 36 35     96% 32   30.28        
Feb 20 09:20 NNW 3 2 Fog/Mist BKN003 OVC038 35 34     96% 32   30.28        
Feb 20 09:15 NNW 3 1.5 Fog/Mist OVC002 35 35     100% 32   30.28        
Feb 20 08:53 NNE 6 0.25 Fog BKN002 OVC038 34 34     100% 29   30.27 30.29      
Feb 20 07:53 Calm 0.25 Fog VV002 34 34     100%     30.26 30.28      
Feb 20 07:34 N 5 0.25 Fog VV002 33 33     100% 29   30.27        
Feb 20 06:53 Calm 0.25 Fog VV003 34 34     100%     30.28 30.29     0
Feb 20 06:50 Calm 0.25 Fog VV003 34 34     100%     30.28        
Feb 20 06:26 Calm 0.5 Fog VV002 33 33     100%     30.26        
Feb 20 06:11 Calm 0.75 Fog/Mist BKN003 OVC017 34 33     96%     30.25        
Feb 20 06:02 Calm 0.5 Fog SCT003 OVC017 33 33     100%     30.25        
Feb 20 05:53 Calm 0.5 Fog OVC018 33 33     100%     30.25 30.27 0    
Feb 20 05:11 Calm 0.5 Light Rain and Fog SCT005 OVC019 33 33     100%     30.24   0    
Feb 20 04:53 Calm 0.5 Light Rain and Fog BKN008 OVC020 34 33     96%     30.23 30.25 0    
Feb 20 04:33 Calm 0.5 Light Rain and Fog SCT002 OVC014 34 34     100%     30.22   0    
Feb 20 04:24 N 3 0.75 Light Rain and Fog/Mist SCT002 OVC006 34 34     100% 31   30.22   0    
Feb 20 04:18 NNE 5 1 Unknown Precipitation and Fog/Mist OVC004 34 33     96% 30   30.21   0    
Feb 20 04:11 Calm 0.75 Fog/Mist OVC002 34 34     100%     30.21   0    
Feb 20 04:06 Calm 1.25 Fog/Mist OVC004 34 34     100%     30.21   0    
Feb 20 03:53 ENE 3 0.5 Light Rain and Fog VV003 34 34     100% 31   30.21 30.23 0 0  
Feb 20 03:49 ENE 3 0.25 Light Rain and Fog VV003 34 34     100% 31   30.21   0    
Feb 20 03:29 Calm 0.25 Unknown Precipitation and Fog VV002 33 33     100%     30.22   0    
Feb 20 02:53 SSW 3 0.5 Fog VV003 35 35     100% 32   30.21 30.23      
Feb 20 02:32 Calm 0.75 Fog/Mist OVC003 35 35     100%     30.2        
Feb 20 02:24 Calm 1.75 Fog/Mist OVC003 35 34     96%     30.2        
Feb 20 01:53 Calm 5 Fog/Mist OVC004 34 33     96%     30.21 30.23      
Feb 20 01:38 Calm 7 Cloudy OVC004 35 35     100%     30.2        
Feb 20 01:06 SW 5 8 Cloudy BKN005 OVC055 35 34     96% 31   30.21        
Feb 20 00:53 SSW 5 8 Cloudy SCT006 OVC055 36 35     96% 32   30.2 30.22     0
Feb 20 00:08 SSW 3 9 Cloudy FEW007 OVC060 36 35     96% 33   30.21        
Feb 19 23:53 S 5 9 Cloudy OVC060 36 35     96% 32   30.21 30.23 0    
Feb 19 22:53 S 6 8 Unknown Precipitation FEW009 SCT036 OVC060 36 35     96% 31   30.22 30.24 0    
Feb 19 22:27 S 7 6 Light Rain and Fog/Mist SCT009 SCT013 OVC034 36 35     96% 30   30.22   0    
Feb 19 22:10 SSW 7 5 Light Rain and Fog/Mist BKN013 OVC027 36 35     96% 30   30.23   0    
Feb 19 21:53 SW 10 5 Light Rain and Fog/Mist BKN015 OVC060 37 34     89% 30   30.24 30.25 0 0  
Feb 19 20:53 3 10 Mostly Cloudy FEW018 BKN090 BKN110 37 31     78% 35   30.23 30.25      
Feb 19 19:53 SSW 7 10 Clear CLR 37 30     76% 32   30.24 30.26      
Feb 19 18:53 SSW 9 10 Clear CLR 37 27     67% 30   30.24 30.27      
Feb 19 17:53 SSW 14 10 Mostly Clear FEW120 38 24     57% 30   30.23 30.26      
Feb 19 16:53 SSW 15 10 Mostly Clear FEW041 40 24     53% 32   30.24 30.26      
Feb 19 15:53 S 11 10 Cloudy OVC040 41 26     55% 34   30.26 30.29      
Feb 19 14:53 SSW 13 10 Partly Cloudy SCT041 41 25     53% 34   30.25 30.27      
Feb 19 13:53 S 17 10 Clear CLR 41 24     51% 32   30.28 30.31      
Feb 19 12:53 SSW 13 10 Clear CLR 39 23     52% 31   30.31 30.34      
Feb 19 11:53 SSW 15 10 Mostly Clear FEW035 37 21     52% 28   30.35 30.38      
Feb 19 10:53 SSW 16 10 Clear CLR 35 16     45% 25   30.41 30.44      
Feb 19 09:53 6 10 Clear CLR 30 17     58% 24   30.46 30.48      
Jun 11 08:53   10 Clear CLR 72 59     64%   72 29.75 29.75      
Jun 11 07:53 SSW 10 10 Clear CLR 66 57     73%     29.79 29.78     0
Jun 10 05:53 W 7 10 Clear CLR 48 40     73% 45   29.81 29.81      
Jun 09 13:53 W 5 10 Light Rain OVC080 57 50     77%     29.52 29.52 0   0
Jun 08 19:53 SSW 10 10 Clear CLR 77 52     42%   76 29.79 29.78      
Jun 08 13:53 SW 11 10 Partly Cloudy SCT095 85 49     29%   83 29.83 29.83      
Jun 07 17:53 Calm 9 Mostly Clear FEW100 78 43     29%   77 29.81 29.82      
Jun 07 14:53 Calm 10 Mostly Cloudy BKN110 77 42     29%   76 29.82 29.82      
Jun 06 01:53 NNE 3 10 Clear CLR 43 41     93% 41   30.06 30.07